Weather History for KMIB - November, 2013

Change the Weather History Date:

Wednesday, November 27, 2013

  Actual Average Record
Temperature  
Mean Temperature 20 °F -  
Max Temperature 26 °F 29 °F 43 °F (2011)
Min Temperature 13 °F 14 °F -22 °F (2014)
Degree Days  
Heating Degree Days 46    
Moisture  
Dew Point 18 °F    
Average Humidity 81    
Maximum Humidity 89    
Minimum Humidity 69    
Precipitation  
Precipitation 0.00 in - - ()
Snow  
Snow 0.00 in - - ()
Snow Depth 2.00 in    
Sea Level Pressure  
Sea Level Pressure 30.07 in    
Wind  
Wind Speed 15 mph (NW)    
Max Wind Speed 21 mph    
Max Gust Speed 23 mph    
Visibility 10 miles    
Events      
Averages and records for this station are not official NWS values.
T = Trace of Precipitation, MM = Missing Value Source: NWS Daily Summary

Daily Weather History Graph

Daily Weather History Graph

Search for Another Location

Airport or City:

Trip Planner

Search our weather history database for the weather conditions in past years. The results will help you decide how hot, cold, wet, or windy it might be!

Date:

Astronomy

Nov. 27, 2013 Rise Set
Actual Time 8:10 AM CST 4:55 PM CST
Civil Twilight 7:35 AM CST 5:30 PM CST
Nautical Twilight 6:56 AM CST 6:09 PM CST
Astronomical Twilight 6:18 AM CST 6:47 PM CST
Moon 1:48 AM CST (11/27) 1:57 PM CST (11/27)
Length of Visible Light 9h 55m
Length of Day
8h 44m
Waning Crescent, 31% of the Moon is Illuminated
Nov 27
Waning Crescent
Dec 2
New
Dec 9
First Quarter
Dec 17
Full
Dec 25
Last Quarter

Hourly Weather History & Observations

Time (CST) Temp. Windchill Dew Point Humidity Pressure Visibility Wind Dir Wind Speed Gust Speed Precip Events Conditions
12:55 AM 13.3 °F -1.1 °F 8.4 °F 81% 30.27 in 9.0 mi South 12.7 mph - N/A   Mostly Cloudy
1:55 AM 17.6 °F 1.3 °F 10.4 °F 73% 30.21 in 9.0 mi South 19.6 mph - N/A   Scattered Clouds
2:55 AM 18.3 °F 2.6 °F 11.1 °F 73% 30.17 in 9.0 mi South 18.4 mph - N/A   Scattered Clouds
3:55 AM 18.5 °F 6.1 °F 11.1 °F 73% 30.13 in 9.0 mi SSE 11.5 mph - N/A   Overcast
4:55 AM 19.2 °F 7.7 °F 12.4 °F 75% 30.08 in 9.0 mi SSE 10.4 mph - N/A   Mostly Cloudy
5:55 AM 19.2 °F 8.4 °F 12.9 °F 76% 30.05 in 9.0 mi SE 9.2 mph - N/A   Clear
6:55 AM 17.2 °F 7.8 °F 12.2 °F 81% 30.04 in 9.0 mi ESE 6.9 mph - N/A   Clear
7:55 AM 16.7 °F 3.2 °F 12.6 °F 84% 29.99 in 10.0 mi South 12.7 mph - N/A   Clear
8:58 AM 16.7 °F 3.2 °F 12.2 °F 82% 29.99 in 10.0 mi South 12.7 mph - N/A   Clear
8:59 AM 16.7 °F 3.2 °F 14.0 °F 89% 29.99 in 10.0 mi South 12.7 mph - N/A   Clear
9:58 AM 16.7 °F 11.2 °F 14.0 °F 89% 29.99 in 10.0 mi South 3.5 mph - N/A   Clear
10:55 AM 24.8 °F 11.5 °F 17.6 °F 74% 29.97 in 10.0 mi NW 17.3 mph - N/A   Clear
11:58 AM 26.6 °F 12.7 °F 17.6 °F 69% 29.99 in 10.0 mi NNW 20.7 mph - N/A   Clear
12:58 PM 26.6 °F 12.7 °F 17.6 °F 69% 30.00 in 10.0 mi NNW 20.7 mph - N/A   Clear
1:58 PM 26.6 °F 12.7 °F 17.6 °F 69% 30.04 in 10.0 mi NNW 20.7 mph - N/A   Clear
2:40 PM 24.8 °F 11.9 °F 19.4 °F 80% 29.96 in 10.0 mi NNW 16.1 mph - N/A   Overcast
2:58 PM 25.2 °F 11.6 °F 19.2 °F 78% 29.97 in 10.0 mi NNW 18.4 mph - N/A   Overcast
3:38 PM 24.8 °F 11.1 °F 21.2 °F 86% 30.00 in 10.0 mi NW 18.4 mph - N/A   Overcast
3:58 PM 24.6 °F 11.3 °F 20.5 °F 84% 30.00 in 10.0 mi NNW 17.3 mph - N/A   Overcast
4:08 PM 24.8 °F 11.9 °F 21.2 °F 86% 30.01 in 10.0 mi NNW 16.1 mph - N/A   Overcast
4:58 PM 24.4 °F 10.6 °F 20.1 °F 84% 30.04 in 10.0 mi NNW 18.4 mph - N/A   Overcast
5:33 PM 24.8 °F 11.9 °F 21.2 °F 86% 30.04 in 10.0 mi NW 16.1 mph - N/A   Overcast
5:48 PM 24.8 °F 10.7 °F 21.2 °F 86% 30.04 in 10.0 mi NW 19.6 mph - N/A   Overcast
5:53 PM 24.8 °F 11.1 °F 21.2 °F 86% 30.05 in 10.0 mi NW 18.4 mph - N/A   Overcast
5:58 PM 24.6 °F 11.7 °F 21.2 °F 87% 30.05 in 10.0 mi NW 16.1 mph - N/A   Overcast
6:03 PM 24.8 °F 12.9 °F 21.2 °F 86% 30.05 in 10.0 mi NW 13.8 mph 23.0 mph N/A   Overcast
6:23 PM 24.8 °F 11.5 °F 21.2 °F 86% 30.06 in 10.0 mi NW 17.3 mph - N/A   Overcast
6:58 PM 24.4 °F 11.0 °F 20.3 °F 84% 30.07 in 10.0 mi NNW 17.3 mph - N/A   Overcast
7:33 PM 24.8 °F 10.7 °F 21.2 °F 86% 30.09 in 10.0 mi NNW 19.6 mph - N/A   Overcast
7:53 PM 24.8 °F 11.5 °F 21.2 °F 86% 30.10 in 10.0 mi NW 17.3 mph - N/A   Overcast
7:58 PM 24.6 °F 11.3 °F 21.0 °F 86% 30.10 in 10.0 mi NNW 17.3 mph - N/A   Overcast
8:33 PM 24.8 °F 11.5 °F 19.4 °F 80% 30.10 in 10.0 mi NNW 17.3 mph - N/A   Overcast
8:58 PM 25.0 °F 12.2 °F 19.0 °F 78% 30.11 in 10.0 mi NNW 16.1 mph - N/A   Overcast
9:13 PM 24.8 °F 11.1 °F 19.4 °F 80% 30.12 in 10.0 mi NNW 18.4 mph - N/A   Overcast
9:58 PM 24.8 °F 13.4 °F 19.2 °F 79% 30.13 in 10.0 mi NW 12.7 mph - N/A   Overcast
10:53 PM 24.8 °F 13.4 °F 19.4 °F 80% 30.16 in 10.0 mi NNW 12.7 mph - N/A   Overcast
10:58 PM 24.3 °F 12.7 °F 19.6 °F 82% 30.16 in 10.0 mi NNW 12.7 mph - N/A   Overcast
11:08 PM 24.8 °F 13.4 °F 19.4 °F 80% 30.16 in 10.0 mi NNW 12.7 mph - N/A   Overcast
11:33 PM 24.8 °F 11.1 °F 19.4 °F 80% 30.17 in 10.0 mi NNW 18.4 mph - N/A   Overcast
11:58 PM 24.3 °F 10.4 °F 17.8 °F 76% 30.18 in 10.0 mi North 18.4 mph - N/A   Overcast